Location: Ayer Observatory
(42.2600°N, 71.0700°W)
Time: 20:51:09
(UTC-04:00)

XW-2A - Pass Details

Date: 24 July 2019
Orbit: 432 x 448 km, 97.3° (Epoch: 21 August)

Event Time Altitude Azimuth Distance (km) Brightness Sun altitude
Rises 21:03:42 0° 183° (S) 2,392 ? -8.9°
Reaches altitude 10° 21:05:47 10° 192° (SSW) 1,531 ? -9.2°
Maximum altitude 21:08:52 37° 262° (W) 688 ? -9.6°
Drops below altitude 10° 21:11:58 10° 332° (NNW) 1,548 ? -10.1°
Sets 21:14:06 0° 340° (NNW) 2,424 ? -10.4°
